SCP
0 -0 -0 -0 -0 -0 -0 -0 -1 -1 -1 -1 -1 -1 -1 -1 -1 -0 -0 -0 -0 -0 -0 -0 -0 -0 -0 -0 -0 -0 -0 0 0 0 0 0 0 0 0 0 -0 -0 -0
0 0 0 -0 -0 -0 -0 -0 -0 -1 -1 -1 -1 -1 -1 -1 -0 -0 -0 -0 -0 -0 -0 -0 -0 -0 -0 -0 -0 -0 0 0 0 0 0 0 0 0 0 0 -0 0 0
0 0 0 -0 -1 -1 -1 -0 -0 -1 -1 -0 -0 -0 -0 -0 -0 -0 -0 -0 -0 -0 -0 -0 -0 -0 -0 -0 0 0 0 0 0 0 0 -0 -0 0 0 -0 0 0 -0
-0 0 0 -0 -0 -1 -0 -0 -0 -0 -0 -0 -0 -0 -0 -0 -0 -0 -0 -0 -0 -0 -0 -0 -0 -0 -0 0 0 -0 0 0 0 0 -0 0 -0 0 0 0 0 0 -0
-0 0 0 -0 -0 -1 -0 -1 -0 -0 -0 -0 -0 -0 -0 -0 -0 -0 -0 -0 -0 -0 -0 -0 -0 -0 0 0 0 0 0 0 -0 0 -0 -0 -0 -0 -0 0 0 0 0
0 0 0 -0 -0 -0 -1 -1 -0 -0 -0 -0 -0 -0 -0 -0 -0 -0 -0 -0 -0 -0 -0 -0 -0 -0 0 0 0 0 0 -0 -0 -0 -0 0 0 -0 -0 -0 0 0 0
0 0 0 -0 -0 -0 -0 -0 -0 -0 -0 -0 -0 -0 -0 -0 -0 -0 -0 -0 -0 -0 -0 -0 -0 -0 0 0 0 0 -0 0 0 0 0 0 0 0 -0 -0 -0 -0 -0
0 0 0 -0 -0 -0 -0 -0 -0 -0 -0 -0 -0 -0 -0 -0 -0 -0 -0 -0 -0 -0 -0 -0 -0 -0 -0 0 0 0 0 -0 -0 0 0 0 -0 -0 -0 -0 -0 0 0
0 0 0 0 0 -0 -0 -0 -0 -0 -0 -0 -0 -0 -0 -0 -0 -0 -0 -0 -0 -0 -0 -0 -0 -0 -0 -0 -0 -0 0 -0 -0 -0 -0 0 -0 -0 -0 0 0 0 0
0 0 0 0 0 0 0 -0 -0 -0 -0 -0 -0 -0 -0 -0 -0 -0 -0 -0 -0 -0 -0 -0 -0 -0 -0 -0 -0 -0 -0 -0 -0 -0 0 0 -0 -0 -0 0 0 0 0
0 0 0 0 0 0 0 0 -0 -0 -0 -0 -0 -0 -0 0 0 -0 -0 -0 -0 -0 -0 -0 -0 -0 -0 -0 -0 -0 -0 -0 -0 -0 0 -0 -0 -0 0 0 0 0 0
0 0 0 0 0 0 0 0 0 0 0 0 0 0 0 0 0 0 -0 -0 -0 -0 -0 -0 -0 -0 -0 -0 0 -0 0 0 0 -0 0 -0 -0 -0 0 0 0 0 0
0 0 0 0 0 0 0 0 0 0 0 0 0 0 0 0 0 0 0 0 0 -0 0 -0 -0 0 0 -0 0 0 0 0 0 0 0 -0 -0 -0 0 0 0 0 0
0 0 0 0 0 0 0 0 0 0 0 0 0 0 0 0 0 0 0 0 0 0 0 0 0 0 0 0 0 0 0 0 0 0 0 -0 -0 -0 -0 0 0 0 0
0 0 0 0 0 0 0 0 0 0 0 0 0 0 0 0 0 0 0 0 0 0 0 0 0 0 0 0 0 0 0 0 0 0 0 -0 -0 -0 0 -0 -0 0 0
0 0 0 0 0 0 0 0 0 0 0 0 0 0 0 0 0 0 0 0 0 0 0 0 0 0 0 0 0 0 0 0 0 0 0 0 0 -0 -0 -0 0 0 0
0 0 0 0 0 0 0 0 0 0 0 0 0 0 0 0 0 0 0 0 0 0 0 0 0 0 0 0 0 0 0 0 0 -0 -0 -0 0 0 0 0 0 0 0
0 0 0 0 0 -0 -0 0 0 0 0 0 0 0 0 0 0 0 0 0 0 0 0 0 0 0 0 0 0 0 0 0 0 0 0 0 0 0 0 0 0 0 0
0 0 0 0 -0 -0 0 0 0 0 0 0 0 0 0 0 0 0 0 0 0 0 0 0 0 0 0 0 -0 0 0 0 0 0 0 0 0 0 0 0 0 0 0
0 0 0 0 0 0 0 0 0 0 0 0 0 0 0 0 0 0 0 0 0 0 0 0 0 0 0 0 0 0 0 0 0 0 0 0 0 0 0 0 0 0 0
0 0 0 0 0 0 0 0 0 0 0 0 0 0 0 0 0 0 0 0 0 0 0 0 0 0 0 0 0 0 0 0 0 0 0 0 0 0 0 0 0 0 0
0 0 0 0 0 0 0 0 0 0 0 0 0 0 0 0 0 0 0 0 0 0 0 0 0 0 0 0 0 0 0 0 0 0 0 0 0 0 0 0 0 0 0
1 0 0 0 0 0 0 0 0 0 0 0 0 0 0 0 0 0 0 0 0 0 0 0 0 0 0 0 0 0 0 0 0 0 0 0 0 0 0 0 0 0 0
1 1 0 0 0 0 0 0 0 0 0 0 0 0 0 0 0 0 0 0 0 0 0 0 0 0 0 0 0 0 0 0 0 0 0 0 0 0 0 0 0 0 0
1 1 1 1 1 0 0 0 0 0 0 0 0 0 0 0 0 0 0 0 0 0 0 0 0 0 0 0 0 0 0 0 0 0 0 0 0 0 0 0 0 0 0
2 2 2 1 1 1 0 0 0 0 0 0 0 0 0 0 0 0 0 0 0 0 0 0 0 0 0 0 0 0 0 0 0 0 0 0 0 0 0 0 0 0 0
Wind_Speed_500mb
79 72 66 58 52 51 49 46 43 38 33 35 47 46 39 32 30 33 35 35 33 31 32 35 35 35 39 41 42 43 44 46 46 43 42 40 39 38 37 34 33 32 29
87 78 69 62 55 56 53 47 42 38 36 39 43 41 36 34 34 35 34 34 32 34 36 38 38 39 38 36 34 38 41 43 47 46 43 41 40 38 36 36 33 32 29
87 81 72 62 59 60 56 49 43 41 42 42 41 39 37 36 36 35 34 34 34 35 37 38 37 36 35 31 30 32 37 39 42 45 43 41 40 38 35 35 33 31 30
89 85 76 67 64 63 58 52 48 46 46 44 43 40 37 36 35 35 34 34 34 35 36 36 35 34 31 31 32 33 34 36 38 41 41 43 40 36 34 34 33 32 32
91 87 78 71 67 64 59 55 52 49 48 46 44 42 40 38 36 34 34 35 34 35 36 35 33 30 28 28 27 28 28 30 33 36 41 41 42 36 32 31 30 30 29
93 89 81 73 68 64 61 57 54 51 48 46 44 43 41 40 38 36 34 33 33 34 35 33 29 27 25 23 23 25 25 26 29 32 36 40 39 35 31 29 27 27 26
94 90 84 77 71 66 62 59 55 52 49 47 45 43 43 41 40 38 36 34 30 29 30 30 27 25 23 21 19 19 22 22 23 26 30 34 36 33 31 29 26 24 24
93 91 85 78 73 67 63 58 54 51 49 47 46 44 42 41 39 37 36 35 33 30 26 25 25 22 20 18 16 15 19 20 20 23 25 28 32 31 30 29 29 26 23
87 86 83 78 72 66 61 57 53 51 49 46 44 43 41 39 37 34 33 33 33 32 30 26 23 20 17 18 16 12 12 14 15 18 21 24 26 27 28 29 29 26 25
88 87 84 79 74 68 62 56 52 49 47 45 44 42 40 38 35 34 32 30 29 30 29 28 26 23 17 16 15 14 10 10 14 17 18 20 21 22 24 25 27 29 27
93 90 88 84 78 71 65 59 53 49 46 44 43 42 40 38 36 34 32 30 29 28 28 28 27 25 21 16 15 15 11 8 9 14 17 18 19 20 20 21 23 25 25
98 96 92 88 83 76 69 65 60 55 53 49 47 45 41 37 35 34 33 31 29 28 27 27 26 24 22 18 15 15 13 8 9 12 16 18 18 18 18 19 20 22 22
99 99 98 93 88 82 77 71 66 62 58 53 49 46 42 40 38 37 35 33 31 29 27 25 23 23 22 21 20 14 9 6 6 8 12 15 16 18 20 22 21 21 21
102 102 101 97 92 87 83 78 72 69 65 62 57 51 47 45 41 38 35 33 30 28 26 25 23 23 23 21 19 14 9 6 9 9 10 14 16 19 22 22 20 19 20
101 102 99 97 95 92 88 83 80 75 71 66 61 56 51 46 42 39 36 34 32 31 29 26 24 24 22 21 19 14 8 5 9 10 10 11 12 15 15 18 17 16 16
94 96 96 98 97 95 93 90 87 82 75 70 65 60 54 48 42 39 37 36 35 32 29 28 26 28 21 24 25 19 15 17 14 8 6 6 8 11 14 15 11 9 11
91 92 93 96 98 98 96 94 92 88 81 74 68 62 57 51 45 40 38 37 36 35 34 33 33 35 29 26 22 15 12 11 10 8 10 10 7 7 5 3 3 7 10
91 91 89 93 97 97 97 96 95 92 85 76 70 66 61 55 49 45 41 39 37 39 39 38 37 37 31 26 22 16 12 6 5 4 7 5 6 7 9 11 9 10 12
90 87 88 88 91 95 95 93 94 89 85 78 73 70 66 60 54 49 45 39 40 39 42 42 43 38 34 28 24 18 17 13 11 14 16 15 13 17 15 13 13 14 17
91 90 85 85 85 90 92 91 88 85 84 81 77 75 70 65 60 55 50 45 42 44 43 45 47 41 36 30 26 23 20 18 20 23 21 21 22 25 23 22 21 20 17
91 97 93 88 87 87 92 93 90 90 90 86 82 79 76 72 67 62 57 53 52 50 50 50 47 46 42 34 33 26 23 23 25 28 25 28 26 26 28 26 23 23 22
96 97 96 93 91 89 86 87 91 91 90 88 85 85 83 79 74 69 64 60 59 59 58 58 56 51 46 46 43 33 27 30 32 31 29 32 30 27 27 26 28 26 23
103 102 98 96 95 91 86 87 92 92 93 93 94 93 91 85 82 77 72 67 66 65 68 65 63 58 53 53 50 35 20 19 30 23 29 31 32 30 29 29 30 29 23
104 105 99 96 100 96 94 92 92 93 98 100 99 98 94 91 88 83 80 76 72 71 74 73 66 65 59 58 55 54 46 21 24 15 22 27 30 29 31 33 34 29 25
98 108 105 100 100 101 100 98 96 94 90 89 97 96 96 96 93 90 87 83 80 77 77 76 73 71 68 64 63 60 60 54 41 30 32 37 34 33 33 34 32 31 31
97 107 110 108 106 105 106 103 104 100 96 93 90 91 91 96 98 97 91 87 84 82 81 80 75 75 73 70 69 69 67 63 62 50 37 47 46 41 41 40 38 34 31
Wind_Direction_500mb
179 173 170 167 170 170 166 163 164 167 158 149 156 159 159 157 148 138 133 130 132 131 126 121 118 116 111 107 98 88 83 77 72 70 69 69 70 73 77 80 83 84 84
173 174 172 169 171 170 166 165 163 159 152 152 157 161 161 155 144 135 129 130 134 131 126 124 124 119 115 107 99 87 81 77 71 67 67 67 68 67 72 79 80 83 85
173 173 172 170 169 168 167 165 161 156 153 154 158 156 151 145 140 136 133 136 136 132 129 128 125 119 113 104 97 92 81 79 72 66 66 68 68 66 70 76 80 81 83
172 173 171 170 170 168 165 164 162 156 154 154 152 150 147 144 141 138 138 140 139 133 132 130 125 121 114 108 99 95 87 82 75 67 68 65 66 64 64 68 74 78 81
173 172 172 170 172 167 166 165 160 158 156 154 153 152 149 146 144 144 143 143 140 138 136 135 132 130 122 114 105 96 89 85 76 69 67 65 63 61 61 64 69 76 80
173 172 173 172 173 170 168 164 162 160 157 155 155 154 153 150 149 148 146 145 144 141 141 141 141 139 132 122 109 94 95 91 76 71 65 63 65 62 61 63 66 72 76
175 174 174 173 173 174 169 167 165 162 159 159 158 158 157 155 154 151 147 144 143 143 146 147 146 147 146 135 116 93 95 96 84 72 62 58 61 61 58 59 62 65 71
178 175 175 174 176 176 173 171 168 166 164 162 161 162 161 158 156 153 149 146 145 145 147 149 150 152 153 147 133 104 92 103 87 72 64 55 54 56 55 56 56 59 63
180 178 177 177 179 179 177 175 173 171 168 165 164 165 164 161 156 153 150 148 149 148 149 150 152 157 168 161 156 132 106 95 91 66 64 56 47 53 56 56 54 55 57
182 182 181 182 182 182 181 180 180 177 174 171 169 169 168 164 160 156 154 152 151 149 149 151 154 160 176 169 169 166 146 97 74 62 78 59 46 54 60 60 57 55 56
185 187 186 186 186 185 185 184 184 184 182 178 176 175 174 170 165 162 158 156 156 154 154 155 157 163 169 174 166 172 167 125 75 87 84 61 50 60 63 62 56 54 54
189 190 191 190 189 189 189 188 188 187 189 187 184 182 179 176 172 169 165 162 161 162 162 162 162 163 165 172 170 162 162 153 110 103 87 62 52 64 67 60 55 55 56
192 193 194 195 192 192 193 192 191 193 193 192 192 190 184 182 180 178 174 170 170 170 171 167 164 165 164 170 168 163 165 162 154 113 92 69 67 78 73 66 62 60 59
195 197 198 198 195 195 197 197 197 196 197 197 196 194 192 189 187 185 183 177 176 176 176 172 171 168 158 159 171 175 184 162 137 116 118 87 80 82 81 74 66 66 54
199 201 202 201 200 199 200 201 202 202 202 202 200 198 198 197 194 190 190 185 182 184 182 179 176 173 170 171 176 177 167 144 152 107 118 102 83 75 73 62 57 56 45
203 205 205 204 204 203 203 205 206 207 206 206 205 203 201 202 200 197 198 194 190 189 188 184 179 171 168 158 149 137 123 91 92 94 123 125 96 79 59 43 34 23 16
207 206 207 206 207 207 208 208 210 212 210 210 209 207 206 205 204 203 205 205 200 195 194 190 183 178 176 166 160 159 133 113 100 76 82 96 90 65 54 4 256 321 336
208 208 209 210 212 210 212 213 214 215 215 213 213 210 210 209 208 208 208 211 207 206 203 198 192 189 187 181 172 170 179 149 174 191 200 203 218 240 252 247 247 311 314
213 210 209 211 214 214 214 215 217 218 217 217 216 214 213 213 212 214 212 210 211 208 207 203 198 194 197 192 185 187 200 206 223 221 228 226 238 242 253 262 267 246 259
219 215 213 212 213 215 215 216 219 219 219 220 219 219 217 216 216 217 217 212 214 212 205 201 200 200 203 206 201 200 214 226 230 238 246 243 249 260 252 246 255 264 261
223 220 215 212 213 213 215 216 217 218 217 220 223 222 222 219 219 220 222 219 217 219 214 207 205 208 209 206 209 214 225 228 240 242 238 243 250 255 255 252 250 258 258
226 224 218 215 216 214 217 219 222 220 220 222 224 224 224 223 223 223 224 225 224 224 220 215 216 217 216 211 211 217 224 231 229 239 241 238 245 246 247 240 242 246 248
226 226 223 216 218 217 216 220 222 223 223 223 224 227 225 224 226 226 227 228 230 229 226 221 220 222 220 215 212 208 210 221 220 232 229 229 234 240 234 228 238 229 242
228 227 227 222 219 220 218 219 221 223 222 225 226 226 227 226 227 228 231 231 233 233 229 225 224 226 226 224 216 220 224 218 201 193 211 209 217 219 224 221 216 226 235
227 228 228 227 224 223 223 223 223 225 228 231 228 228 229 228 230 230 231 233 233 232 230 227 225 226 229 231 230 227 225 227 229 221 195 191 203 203 211 218 222 231 237
227 228 230 231 230 226 225 227 228 228 229 229 232 230 229 229 228 231 231 232 232 231 229 227 228 229 230 233 237 239 240 231 229 224 212 196 200 197 204 211 221 226 231
Wind_Speed_850mb
79 72 66 58 52 51 49 46 43 38 33 35 47 46 39 32 30 33 35 35 33 31 32 35 35 35 39 41 42 43 44 46 46 43 42 40 39 38 37 34 33 32 29
87 78 69 62 55 56 53 47 42 38 36 39 43 41 36 34 34 35 34 34 32 34 36 38 38 39 38 36 34 38 41 43 47 46 43 41 40 38 36 36 33 32 29
87 81 72 62 59 60 56 49 43 41 42 42 41 39 37 36 36 35 34 34 34 35 37 38 37 36 35 31 30 32 37 39 42 45 43 41 40 38 35 35 33 31 30
89 85 76 67 64 63 58 52 48 46 46 44 43 40 37 36 35 35 34 34 34 35 36 36 35 34 31 31 32 33 34 36 38 41 41 43 40 36 34 34 33 32 32
91 87 78 71 67 64 59 55 52 49 48 46 44 42 40 38 36 34 34 35 34 35 36 35 33 30 28 28 27 28 28 30 33 36 41 41 42 36 32 31 30 30 29
93 89 81 73 68 64 61 57 54 51 48 46 44 43 41 40 38 36 34 33 33 34 35 33 29 27 25 23 23 25 25 26 29 32 36 40 39 35 31 29 27 27 26
94 90 84 77 71 66 62 59 55 52 49 47 45 43 43 41 40 38 36 34 30 29 30 30 27 25 23 21 19 19 22 22 23 26 30 34 36 33 31 29 26 24 24
93 91 85 78 73 67 63 58 54 51 49 47 46 44 42 41 39 37 36 35 33 30 26 25 25 22 20 18 16 15 19 20 20 23 25 28 32 31 30 29 29 26 23
87 86 83 78 72 66 61 57 53 51 49 46 44 43 41 39 37 34 33 33 33 32 30 26 23 20 17 18 16 12 12 14 15 18 21 24 26 27 28 29 29 26 25
88 87 84 79 74 68 62 56 52 49 47 45 44 42 40 38 35 34 32 30 29 30 29 28 26 23 17 16 15 14 10 10 14 17 18 20 21 22 24 25 27 29 27
93 90 88 84 78 71 65 59 53 49 46 44 43 42 40 38 36 34 32 30 29 28 28 28 27 25 21 16 15 15 11 8 9 14 17 18 19 20 20 21 23 25 25
98 96 92 88 83 76 69 65 60 55 53 49 47 45 41 37 35 34 33 31 29 28 27 27 26 24 22 18 15 15 13 8 9 12 16 18 18 18 18 19 20 22 22
99 99 98 93 88 82 77 71 66 62 58 53 49 46 42 40 38 37 35 33 31 29 27 25 23 23 22 21 20 14 9 6 6 8 12 15 16 18 20 22 21 21 21
102 102 101 97 92 87 83 78 72 69 65 62 57 51 47 45 41 38 35 33 30 28 26 25 23 23 23 21 19 14 9 6 9 9 10 14 16 19 22 22 20 19 20
101 102 99 97 95 92 88 83 80 75 71 66 61 56 51 46 42 39 36 34 32 31 29 26 24 24 22 21 19 14 8 5 9 10 10 11 12 15 15 18 17 16 16
94 96 96 98 97 95 93 90 87 82 75 70 65 60 54 48 42 39 37 36 35 32 29 28 26 28 21 24 25 19 15 17 14 8 6 6 8 11 14 15 11 9 11
91 92 93 96 98 98 96 94 92 88 81 74 68 62 57 51 45 40 38 37 36 35 34 33 33 35 29 26 22 15 12 11 10 8 10 10 7 7 5 3 3 7 10
91 91 89 93 97 97 97 96 95 92 85 76 70 66 61 55 49 45 41 39 37 39 39 38 37 37 31 26 22 16 12 6 5 4 7 5 6 7 9 11 9 10 12
90 87 88 88 91 95 95 93 94 89 85 78 73 70 66 60 54 49 45 39 40 39 42 42 43 38 34 28 24 18 17 13 11 14 16 15 13 17 15 13 13 14 17
91 90 85 85 85 90 92 91 88 85 84 81 77 75 70 65 60 55 50 45 42 44 43 45 47 41 36 30 26 23 20 18 20 23 21 21 22 25 23 22 21 20 17
91 97 93 88 87 87 92 93 90 90 90 86 82 79 76 72 67 62 57 53 52 50 50 50 47 46 42 34 33 26 23 23 25 28 25 28 26 26 28 26 23 23 22
96 97 96 93 91 89 86 87 91 91 90 88 85 85 83 79 74 69 64 60 59 59 58 58 56 51 46 46 43 33 27 30 32 31 29 32 30 27 27 26 28 26 23
103 102 98 96 95 91 86 87 92 92 93 93 94 93 91 85 82 77 72 67 66 65 68 65 63 58 53 53 50 35 20 19 30 23 29 31 32 30 29 29 30 29 23
104 105 99 96 100 96 94 92 92 93 98 100 99 98 94 91 88 83 80 76 72 71 74 73 66 65 59 58 55 54 46 21 24 15 22 27 30 29 31 33 34 29 25
98 108 105 100 100 101 100 98 96 94 90 89 97 96 96 96 93 90 87 83 80 77 77 76 73 71 68 64 63 60 60 54 41 30 32 37 34 33 33 34 32 31 31
97 107 110 108 106 105 106 103 104 100 96 93 90 91 91 96 98 97 91 87 84 82 81 80 75 75 73 70 69 69 67 63 62 50 37 47 46 41 41 40 38 34 31
Wind_Direction_850mb
179 173 170 167 170 170 166 163 164 167 158 149 156 159 159 157 148 138 133 130 132 131 126 121 118 116 111 107 98 88 83 77 72 70 69 69 70 73 77 80 83 84 84
173 174 172 169 171 170 166 165 163 159 152 152 157 161 161 155 144 135 129 130 134 131 126 124 124 119 115 107 99 87 81 77 71 67 67 67 68 67 72 79 80 83 85
173 173 172 170 169 168 167 165 161 156 153 154 158 156 151 145 140 136 133 136 136 132 129 128 125 119 113 104 97 92 81 79 72 66 66 68 68 66 70 76 80 81 83
172 173 171 170 170 168 165 164 162 156 154 154 152 150 147 144 141 138 138 140 139 133 132 130 125 121 114 108 99 95 87 82 75 67 68 65 66 64 64 68 74 78 81
173 172 172 170 172 167 166 165 160 158 156 154 153 152 149 146 144 144 143 143 140 138 136 135 132 130 122 114 105 96 89 85 76 69 67 65 63 61 61 64 69 76 80
173 172 173 172 173 170 168 164 162 160 157 155 155 154 153 150 149 148 146 145 144 141 141 141 141 139 132 122 109 94 95 91 76 71 65 63 65 62 61 63 66 72 76
175 174 174 173 173 174 169 167 165 162 159 159 158 158 157 155 154 151 147 144 143 143 146 147 146 147 146 135 116 93 95 96 84 72 62 58 61 61 58 59 62 65 71
178 175 175 174 176 176 173 171 168 166 164 162 161 162 161 158 156 153 149 146 145 145 147 149 150 152 153 147 133 104 92 103 87 72 64 55 54 56 55 56 56 59 63
180 178 177 177 179 179 177 175 173 171 168 165 164 165 164 161 156 153 150 148 149 148 149 150 152 157 168 161 156 132 106 95 91 66 64 56 47 53 56 56 54 55 57
182 182 181 182 182 182 181 180 180 177 174 171 169 169 168 164 160 156 154 152 151 149 149 151 154 160 176 169 169 166 146 97 74 62 78 59 46 54 60 60 57 55 56
185 187 186 186 186 185 185 184 184 184 182 178 176 175 174 170 165 162 158 156 156 154 154 155 157 163 169 174 166 172 167 125 75 87 84 61 50 60 63 62 56 54 54
189 190 191 190 189 189 189 188 188 187 189 187 184 182 179 176 172 169 165 162 161 162 162 162 162 163 165 172 170 162 162 153 110 103 87 62 52 64 67 60 55 55 56
192 193 194 195 192 192 193 192 191 193 193 192 192 190 184 182 180 178 174 170 170 170 171 167 164 165 164 170 168 163 165 162 154 113 92 69 67 78 73 66 62 60 59
195 197 198 198 195 195 197 197 197 196 197 197 196 194 192 189 187 185 183 177 176 176 176 172 171 168 158 159 171 175 184 162 137 116 118 87 80 82 81 74 66 66 54
199 201 202 201 200 199 200 201 202 202 202 202 200 198 198 197 194 190 190 185 182 184 182 179 176 173 170 171 176 177 167 144 152 107 118 102 83 75 73 62 57 56 45
203 205 205 204 204 203 203 205 206 207 206 206 205 203 201 202 200 197 198 194 190 189 188 184 179 171 168 158 149 137 123 91 92 94 123 125 96 79 59 43 34 23 16
207 206 207 206 207 207 208 208 210 212 210 210 209 207 206 205 204 203 205 205 200 195 194 190 183 178 176 166 160 159 133 113 100 76 82 96 90 65 54 4 256 321 336
208 208 209 210 212 210 212 213 214 215 215 213 213 210 210 209 208 208 208 211 207 206 203 198 192 189 187 181 172 170 179 149 174 191 200 203 218 240 252 247 247 311 314
213 210 209 211 214 214 214 215 217 218 217 217 216 214 213 213 212 214 212 210 211 208 207 203 198 194 197 192 185 187 200 206 223 221 228 226 238 242 253 262 267 246 259
219 215 213 212 213 215 215 216 219 219 219 220 219 219 217 216 216 217 217 212 214 212 205 201 200 200 203 206 201 200 214 226 230 238 246 243 249 260 252 246 255 264 261
223 220 215 212 213 213 215 216 217 218 217 220 223 222 222 219 219 220 222 219 217 219 214 207 205 208 209 206 209 214 225 228 240 242 238 243 250 255 255 252 250 258 258
226 224 218 215 216 214 217 219 222 220 220 222 224 224 224 223 223 223 224 225 224 224 220 215 216 217 216 211 211 217 224 231 229 239 241 238 245 246 247 240 242 246 248
226 226 223 216 218 217 216 220 222 223 223 223 224 227 225 224 226 226 227 228 230 229 226 221 220 222 220 215 212 208 210 221 220 232 229 229 234 240 234 228 238 229 242
228 227 227 222 219 220 218 219 221 223 222 225 226 226 227 226 227 228 231 231 233 233 229 225 224 226 226 224 216 220 224 218 201 193 211 209 217 219 224 221 216 226 235
227 228 228 227 224 223 223 223 223 225 228 231 228 228 229 228 230 230 231 233 233 232 230 227 225 226 229 231 230 227 225 227 229 221 195 191 203 203 211 218 222 231 237
227 228 230 231 230 226 225 227 228 228 229 229 232 230 229 229 228 231 231 232 232 231 229 227 228 229 230 233 237 239 240 231 229 224 212 196 200 197 204 211 221 226 231